TimeMST,TemperatureF,Dew PointF,Humidity,Sea Level PressureIn,VisibilityMPH,Wind Direction,Wind SpeedMPH,Gust SpeedMPH,PrecipitationIn,Events,Conditions,WindDirDegrees,DateUTC
12:15 AM,15.3,8.1,73,30.07,10.0,Calm,Calm,-,N/A,,Unknown,0,2014-01-08 07:15:00
12:35 AM,13.6,6.3,72,30.07,10.0,Calm,Calm,-,N/A,,Unknown,0,2014-01-08 07:35:00
12:55 AM,12.0,6.1,77,30.07,10.0,Calm,Calm,-,N/A,,Unknown,0,2014-01-08 07:55:00
1:15 AM,14.0,6.3,71,30.07,10.0,Calm,Calm,-,N/A,,Unknown,0,2014-01-08 08:15:00
1:35 AM,14.4,8.4,77,30.07,10.0,Calm,Calm,-,N/A,,Unknown,0,2014-01-08 08:35:00
1:55 AM,12.7,6.1,75,30.07,10.0,Calm,Calm,-,N/A,,Unknown,0,2014-01-08 08:55:00
2:15 AM,11.8,6.3,78,30.07,10.0,Calm,Calm,-,N/A,,Unknown,0,2014-01-08 09:15:00
2:35 AM,12.0,6.3,78,30.07,10.0,Calm,Calm,-,N/A,,Unknown,0,2014-01-08 09:35:00
2:55 AM,12.0,6.3,78,30.07,10.0,Calm,Calm,-,N/A,,Unknown,0,2014-01-08 09:55:00
3:15 AM,9.5,5.0,82,30.07,10.0,Calm,Calm,-,N/A,,Unknown,0,2014-01-08 10:15:00
3:35 AM,13.3,8.1,80,30.07,10.0,Calm,Calm,-,N/A,,Unknown,0,2014-01-08 10:35:00
3:55 AM,12.6,6.6,77,30.07,10.0,Calm,Calm,-,N/A,,Unknown,0,2014-01-08 10:55:00
4:15 AM,10.6,4.8,78,30.07,10.0,Calm,Calm,-,N/A,,Unknown,0,2014-01-08 11:15:00
4:35 AM,12.2,6.4,78,30.07,10.0,Calm,Calm,-,N/A,,Unknown,0,2014-01-08 11:35:00
4:55 AM,11.3,6.4,81,30.07,10.0,Calm,Calm,-,N/A,,Unknown,0,2014-01-08 11:55:00
5:15 AM,11.7,7.0,81,30.07,10.0,Calm,Calm,-,N/A,,Unknown,0,2014-01-08 12:15:00
5:35 AM,12.0,7.9,83,30.07,10.0,Calm,Calm,-,N/A,,Unknown,0,2014-01-08 12:35:00
5:55 AM,8.2,5.4,88,30.07,10.0,Calm,Calm,-,N/A,,Unknown,0,2014-01-08 12:55:00
6:15 AM,9.7,7.7,92,30.06,10.0,Calm,Calm,-,N/A,,Unknown,0,2014-01-08 13:15:00
6:35 AM,9.7,5.0,81,30.05,10.0,Calm,Calm,-,N/A,,Unknown,0,2014-01-08 13:35:00
6:55 AM,9.5,6.1,86,30.05,10.0,Calm,Calm,-,N/A,,Unknown,0,2014-01-08 13:55:00
7:15 AM,11.5,7.9,85,30.05,10.0,Calm,Calm,-,N/A,,Unknown,0,2014-01-08 14:15:00
7:35 AM,8.4,6.1,90,30.07,10.0,Calm,Calm,-,N/A,,Unknown,0,2014-01-08 14:35:00
7:55 AM,9.3,7.5,92,30.08,10.0,Calm,Calm,-,N/A,,Unknown,0,2014-01-08 14:55:00
8:15 AM,10.6,6.1,82,30.08,10.0,Calm,Calm,-,N/A,,Unknown,0,2014-01-08 15:15:00
8:35 AM,15.6,8.4,73,30.09,10.0,Calm,Calm,-,N/A,,Unknown,0,2014-01-08 15:35:00
8:55 AM,18.1,9.0,67,30.09,10.0,Calm,Calm,-,N/A,,Unknown,0,2014-01-08 15:55:00
9:15 AM,16.5,8.8,72,30.10,10.0,Calm,Calm,-,N/A,,Unknown,0,2014-01-08 16:15:00
9:35 AM,19.4,9.9,66,30.11,10.0,Calm,Calm,-,N/A,,Unknown,0,2014-01-08 16:35:00
9:55 AM,-9999,-9999,N/A,-9999,-9999.0,North,-9999.0,-,N/A,,Unknown,0,2014-01-08 16:55:00
10:15 AM,-9999,-9999,N/A,-9999,-9999.0,North,-9999.0,-,N/A,,Unknown,0,2014-01-08 17:15:00
10:35 AM,-9999,-9999,N/A,-9999,-9999.0,North,-9999.0,-,N/A,,Unknown,0,2014-01-08 17:35:00
10:55 AM,-9999,-9999,N/A,-9999,-9999.0,North,-9999.0,-,N/A,,Unknown,0,2014-01-08 17:55:00
11:15 AM,-9999,-9999,N/A,-9999,-9999.0,North,-9999.0,-,N/A,,Unknown,0,2014-01-08 18:15:00
11:35 AM,-9999,-9999,N/A,-9999,-9999.0,North,-9999.0,-,N/A,,Unknown,0,2014-01-08 18:35:00
11:55 AM,-9999,-9999,N/A,-9999,-9999.0,North,-9999.0,-,N/A,,Unknown,0,2014-01-08 18:55:00
12:15 PM,32.2,10.8,41,30.04,10.0,SSW,4.6,-,N/A,,Unknown,200,2014-01-08 19:15:00
12:35 PM,33.8,10.8,38,30.04,10.0,SW,4.6,-,N/A,,Scattered Clouds,230,2014-01-08 19:35:00
12:55 PM,34.7,10.8,37,30.03,10.0,SW,5.8,-,N/A,,Overcast,220,2014-01-08 19:55:00
1:15 PM,35.2,10.6,36,30.03,10.0,SW,5.8,-,N/A,,Mostly Cloudy,230,2014-01-08 20:15:00
1:35 PM,35.8,9.9,34,30.02,10.0,SW,4.6,-,N/A,,Mostly Cloudy,230,2014-01-08 20:35:00
1:55 PM,36.5,9.5,33,30.02,10.0,SW,5.8,-,N/A,,Mostly Cloudy,220,2014-01-08 20:55:00
2:15 PM,36.0,10.6,35,30.02,10.0,WSW,3.5,-,N/A,,Overcast,250,2014-01-08 21:15:00
2:35 PM,36.5,9.5,33,30.03,10.0,SW,4.6,-,N/A,,Mostly Cloudy,230,2014-01-08 21:35:00
2:55 PM,36.1,9.3,33,30.03,10.0,SSW,4.6,-,N/A,,Mostly Cloudy,200,2014-01-08 21:55:00
3:15 PM,35.4,13.6,41,30.04,10.0,South,5.8,-,N/A,,Mostly Cloudy,170,2014-01-08 22:15:00
3:35 PM,34.9,11.3,38,30.05,10.0,SSE,5.8,-,N/A,,Overcast,160,2014-01-08 22:35:00
3:55 PM,35.2,12.0,38,30.05,10.0,SSE,3.5,-,N/A,,Overcast,150,2014-01-08 22:55:00
4:15 PM,35.4,11.1,37,30.05,10.0,SSE,4.6,-,N/A,,Overcast,150,2014-01-08 23:15:00
4:35 PM,35.6,10.8,36,30.05,10.0,Calm,Calm,-,N/A,,Overcast,0,2014-01-08 23:35:00
4:55 PM,35.4,11.1,37,30.05,10.0,Calm,Calm,-,N/A,,Overcast,0,2014-01-08 23:55:00
5:15 PM,34.0,10.9,38,30.05,10.0,Calm,Calm,-,N/A,,Mostly Cloudy,0,2014-01-09 00:15:00
5:35 PM,27.0,13.8,58,30.06,10.0,Calm,Calm,-,N/A,,Scattered Clouds,0,2014-01-09 00:35:00
5:55 PM,27.3,13.1,55,30.07,10.0,Calm,Calm,-,N/A,,Scattered Clouds,0,2014-01-09 00:55:00
6:15 PM,25.9,12.7,58,30.07,10.0,Calm,Calm,-,N/A,,Clear,0,2014-01-09 01:15:00
6:35 PM,26.4,13.5,58,30.07,10.0,Calm,Calm,-,N/A,,Mostly Cloudy,0,2014-01-09 01:35:00
6:55 PM,26.6,13.8,59,30.08,10.0,Calm,Calm,-,N/A,,Overcast,0,2014-01-09 01:55:00
7:15 PM,26.2,14.0,60,30.08,10.0,Calm,Calm,-,N/A,,Overcast,0,2014-01-09 02:15:00
7:35 PM,26.8,13.3,57,30.08,10.0,Calm,Calm,-,N/A,,Overcast,0,2014-01-09 02:35:00
7:55 PM,24.4,14.0,65,30.08,10.0,Calm,Calm,-,N/A,,Overcast,0,2014-01-09 02:55:00
8:15 PM,26.1,13.8,60,30.09,10.0,Calm,Calm,-,N/A,,Overcast,0,2014-01-09 03:15:00
8:35 PM,24.4,12.9,62,30.09,10.0,Calm,Calm,-,N/A,,Mostly Cloudy,0,2014-01-09 03:35:00
8:55 PM,24.4,13.6,64,30.09,10.0,Calm,Calm,-,N/A,,Overcast,0,2014-01-09 03:55:00
9:15 PM,24.3,13.3,63,30.09,10.0,Calm,Calm,-,N/A,,Overcast,0,2014-01-09 04:15:00
9:35 PM,25.7,13.3,59,30.09,10.0,Calm,Calm,-,N/A,,Overcast,0,2014-01-09 04:35:00
9:55 PM,26.6,14.7,61,30.10,10.0,Calm,Calm,-,N/A,,Overcast,0,2014-01-09 04:55:00
10:15 PM,25.5,15.3,65,30.09,10.0,Calm,Calm,-,N/A,,Overcast,0,2014-01-09 05:15:00
10:35 PM,25.0,13.1,61,30.09,10.0,Calm,Calm,-,N/A,,Overcast,0,2014-01-09 05:35:00
10:55 PM,25.5,14.0,62,30.09,10.0,Calm,Calm,-,N/A,,Overcast,0,2014-01-09 05:55:00
11:15 PM,25.0,14.4,64,30.09,10.0,Calm,Calm,-,N/A,,Mostly Cloudy,0,2014-01-09 06:15:00
11:35 PM,23.9,14.5,67,30.09,10.0,Calm,Calm,-,N/A,,Mostly Cloudy,0,2014-01-09 06:35:00
11:55 PM,23.9,14.4,67,30.09,10.0,Calm,Calm,-,N/A,,Mostly Cloudy,0,2014-01-09 06:55:00